Tracking 19854 objects as of 23-Sep-2019
HD Live streaming from Space Station
objects crossing your sky now

ATS 6

Track ATS 6 now!
ATS 6 is classified as:


NORAD ID: 7318
Int'l Code: 1974-039A
Perigee: 35,196.4 km
Apogee: 35,446.4 km
Inclination: 7.9 °
Period: 1,412.0 minutes
Semi major axis: 41692 km
RCS: 6.3095 m2 (large)
Launch date: May 30, 1974
Source: United States (US)
Launch site: AIR FORCE EASTERN TEST RANGE (AFETR)
aabbcc
Your satellite tracking list
Your tracking list is empty




NASA's NSSDC Master Catalog

Two Line Element Set (TLE):
1  7318U 74039A   19264.72592958 -.00000144  00000-0  00000+0 0  9990
2  7318   7.9468 297.0424 0029972 249.7770 122.7534  1.01980621 97040
Source of the keplerian elements: AFSPC